Coldwater, MI

9:52 AM EST on November 22, 2017 (GMT -0500)
Branch County Memorial

Weather History for KOEB - November, 2012

Change the Weather History Date:

Tuesday, November 13, 2012

  Actual Average (KJYM) Record (KJYM)
Temperature  
Mean Temperature 30 °F -  
Max Temperature 35 °F 44 °F 66 °F (2010)
Min Temperature 24 °F 26 °F 11 °F (1986)
Degree Days  
Heating Degree Days 36    
Moisture  
Dew Point 23 °F    
Average Humidity 72    
Maximum Humidity 92    
Minimum Humidity 55    
Precipitation  
Precipitation 0.00 in - - ()
Sea Level Pressure  
Sea Level Pressure 30.42 in    
Wind  
Wind Speed 6 mph (West)    
Max Wind Speed 14 mph    
Max Gust Speed 23 mph    
Visibility 10 miles    
Events      
Averages and records for this station are not official NWS values.
T = Trace of Precipitation, MM = Missing Value Source: NWS Daily Summary

Daily Weather History Graph

Daily Weather History Graph

Search for Another Location

Airport or City:

Trip Planner

Search our weather history database for the weather conditions in past years. The results will help you decide how hot, cold, wet, or windy it might be!

Date:

Astronomy

Nov. 13, 2012 Rise Set
Actual Time 7:28 AM EST 5:20 PM EST
Civil Twilight 6:58 AM EST 5:50 PM EST
Nautical Twilight 6:24 AM EST 6:24 PM EST
Astronomical Twilight 5:51 AM EST 6:56 PM EST
Moon 7:05 AM EST (11/13) 5:12 PM EST (11/13)
Length of Visible Light 10h 52m
Length of Day
9h 52m
Waning Crescent, 0% of the Moon is Illuminated
Nov 13
Waning Crescent
Nov 13
New
Nov 20
First Quarter
Nov 28
Full
Dec 6
Last Quarter

Hourly Weather History & Observations

Time (EST) Temp. Windchill Dew Point Humidity Pressure Visibility Wind Dir Wind Speed Gust Speed Precip Events Conditions
12:14 AM 32.9 °F 24.7 °F 26.1 °F 76% 30.27 in 10.0 mi West 10.4 mph - N/A   Overcast
12:34 AM 32.9 °F 24.7 °F 25.3 °F 74% 30.27 in 10.0 mi West 10.4 mph 16.1 mph N/A   Overcast
12:55 AM 33.1 °F 24.4 °F 24.8 °F 72% 30.27 in 10.0 mi West 11.5 mph - N/A   Overcast
1:14 AM 33.3 °F 23.7 °F 23.0 °F 66% 30.27 in 10.0 mi West 13.8 mph 23.0 mph N/A   Overcast
1:34 AM 33.1 °F 25.5 °F 23.5 °F 68% 30.28 in 10.0 mi West 9.2 mph - N/A   Overcast
1:55 AM 32.9 °F 25.3 °F 23.7 °F 69% 30.28 in 10.0 mi West 9.2 mph - N/A   Overcast
2:14 AM 33.1 °F 26.9 °F 24.1 °F 70% 30.28 in 10.0 mi West 6.9 mph - N/A   Overcast
2:55 AM 33.3 °F 27.1 °F 25.0 °F 72% 30.30 in 10.0 mi NNW 6.9 mph - N/A   Overcast
3:14 AM 32.9 °F 25.9 °F 25.3 °F 74% 30.31 in 10.0 mi NW 8.1 mph - N/A   Overcast
3:55 AM 32.4 °F 25.3 °F 25.3 °F 75% 30.31 in 10.0 mi WNW 8.1 mph - N/A   Overcast
4:14 AM 32.4 °F 26.0 °F 25.5 °F 76% 30.31 in 10.0 mi WNW 6.9 mph - N/A   Overcast
4:35 AM 32.2 °F 26.7 °F 26.1 °F 78% 30.31 in 10.0 mi WNW 5.8 mph - N/A   Overcast
4:54 AM 32.2 °F 27.7 °F 26.2 °F 79% 30.32 in 10.0 mi West 4.6 mph - N/A   Overcast
5:14 AM 32.0 °F 25.6 °F 26.1 °F 79% 30.33 in 10.0 mi West 6.9 mph - N/A   Overcast
5:35 AM 32.0 °F 24.8 °F 25.5 °F 77% 30.33 in 10.0 mi West 8.1 mph - N/A   Overcast
5:54 AM 32.0 °F 26.4 °F 23.2 °F 70% 30.34 in 10.0 mi West 5.8 mph - N/A   Overcast
6:15 AM 32.0 °F 25.6 °F 21.7 °F 66% 30.36 in 10.0 mi West 6.9 mph - N/A   Overcast
6:35 AM 32.0 °F 26.4 °F 22.5 °F 68% 30.36 in 10.0 mi WNW 5.8 mph - N/A   Overcast
7:15 AM 30.0 °F 24.1 °F 23.0 °F 75% 30.37 in 10.0 mi West 5.8 mph - N/A   Overcast
7:34 AM 29.3 °F 23.2 °F 21.9 °F 74% 30.38 in 10.0 mi West 5.8 mph - N/A   Scattered Clouds
7:55 AM 29.1 °F 25.4 °F 23.2 °F 78% 30.39 in 10.0 mi West 3.5 mph - N/A   Scattered Clouds
8:15 AM 32.0 °F 27.5 °F 22.6 °F 68% 30.40 in 10.0 mi West 4.6 mph - N/A   Overcast
8:34 AM 32.0 °F 25.6 °F 22.1 °F 67% 30.42 in 10.0 mi West 6.9 mph - N/A   Overcast
8:55 AM 32.0 °F 24.8 °F 22.6 °F 68% 30.42 in 10.0 mi West 8.1 mph - N/A   Overcast
9:15 AM 32.0 °F 25.6 °F 22.6 °F 68% 30.43 in 10.0 mi West 6.9 mph - N/A   Overcast
9:34 AM 32.2 °F 26.7 °F 23.4 °F 70% 30.43 in 10.0 mi West 5.8 mph - N/A   Overcast
9:55 AM 32.4 °F 26.0 °F 23.5 °F 70% 30.44 in 10.0 mi West 6.9 mph - N/A   Overcast
10:14 AM 32.4 °F 27.9 °F 22.8 °F 68% 30.45 in 10.0 mi WNW 4.6 mph - N/A   Overcast
10:35 AM 32.4 °F 26.0 °F 23.0 °F 68% 30.45 in 10.0 mi NW 6.9 mph - N/A   Overcast
10:55 AM 32.9 °F 28.5 °F 22.1 °F 65% 30.46 in 10.0 mi WNW 4.6 mph - N/A   Overcast
11:14 AM 33.3 °F 30.2 °F 21.4 °F 62% 30.46 in 10.0 mi NW 3.5 mph - N/A   Overcast
11:35 AM 33.4 °F 30.4 °F 20.3 °F 59% 30.47 in 10.0 mi West 3.5 mph - N/A   Overcast
11:54 AM 33.3 °F 30.2 °F 19.6 °F 57% 30.46 in 10.0 mi NNW 3.5 mph - N/A   Overcast
12:14 PM 33.8 °F - 19.4 °F 56% 30.45 in 10.0 mi Calm Calm - N/A   Overcast
12:35 PM 33.6 °F 28.4 °F 20.8 °F 59% 30.45 in 10.0 mi NW 5.8 mph - N/A   Overcast
12:54 PM 34.0 °F 28.0 °F 20.7 °F 58% 30.45 in 10.0 mi WNW 6.9 mph - N/A   Overcast
1:14 PM 34.0 °F 29.8 °F 20.3 °F 57% 30.45 in 10.0 mi NW 4.6 mph - N/A   Overcast
1:54 PM 34.0 °F - 20.3 °F 57% 30.45 in 10.0 mi Calm Calm - N/A   Overcast
2:15 PM 34.7 °F 31.8 °F 20.8 °F 57% 30.45 in 10.0 mi NW 3.5 mph - N/A   Overcast
2:34 PM 34.7 °F 31.8 °F 21.4 °F 58% 30.45 in 10.0 mi WNW 3.5 mph - N/A   Overcast
2:54 PM 34.3 °F 31.4 °F 21.0 °F 58% 30.45 in 10.0 mi WNW 3.5 mph - N/A   Overcast
3:15 PM 35.1 °F - 21.4 °F 57% 30.45 in 10.0 mi Calm Calm - N/A   Overcast
3:34 PM 34.9 °F - 20.5 °F 56% 30.45 in 10.0 mi Calm Calm - N/A   Overcast
3:54 PM 35.2 °F - 20.7 °F 55% 30.45 in 10.0 mi Calm Calm - N/A   Overcast
4:15 PM 34.9 °F - 21.0 °F 57% 30.45 in 10.0 mi Calm Calm - N/A   Overcast
4:34 PM 34.7 °F 31.8 °F 21.2 °F 58% 30.45 in 10.0 mi NE 3.5 mph - N/A   Overcast
4:55 PM 34.2 °F - 20.8 °F 58% 30.45 in 10.0 mi Calm Calm - N/A   Scattered Clouds
5:15 PM 32.5 °F 29.3 °F 23.2 °F 68% 30.46 in 10.0 mi NE 3.5 mph - N/A   Scattered Clouds
5:34 PM 32.0 °F - 23.0 °F 69% 30.46 in 10.0 mi Calm Calm - N/A   Clear
5:55 PM 31.5 °F - 22.8 °F 70% 30.46 in 10.0 mi Calm Calm - N/A   Clear
6:15 PM 30.0 °F - 23.4 °F 76% 30.46 in 10.0 mi Calm Calm - N/A   Clear
6:34 PM 30.4 °F - 23.0 °F 74% 30.48 in 10.0 mi Calm Calm - N/A   Clear
6:55 PM 28.8 °F - 24.1 °F 83% 30.47 in 10.0 mi Calm Calm - N/A   Clear
7:14 PM 28.2 °F - 24.4 °F 86% 30.48 in 10.0 mi Calm Calm - N/A   Clear
7:35 PM 28.8 °F 25.0 °F 23.7 °F 81% 30.48 in 10.0 mi SSE 3.5 mph - N/A   Clear
7:55 PM 27.9 °F - 24.1 °F 86% 30.48 in 10.0 mi Calm Calm - N/A   Clear
8:14 PM 27.3 °F - 24.6 °F 90% 30.49 in 10.0 mi Calm Calm - N/A   Clear
8:35 PM 27.3 °F 23.4 °F 24.4 °F 89% 30.50 in 10.0 mi SSE 3.5 mph - N/A   Clear
8:54 PM 27.3 °F 23.4 °F 23.9 °F 87% 30.50 in 10.0 mi SSE 3.5 mph - N/A   Clear
9:14 PM 26.2 °F - 23.7 °F 90% 30.51 in 10.0 mi Calm Calm - N/A   Clear
9:35 PM 26.4 °F 22.4 °F 23.7 °F 90% 30.51 in 10.0 mi SSE 3.5 mph - N/A   Clear
9:54 PM 25.7 °F 21.5 °F 23.4 °F 91% 30.50 in 10.0 mi SE 3.5 mph - N/A   Clear
10:14 PM 25.7 °F 21.5 °F 23.7 °F 92% 30.50 in 10.0 mi SE 3.5 mph - N/A   Clear
10:35 PM 25.3 °F 21.1 °F 23.0 °F 91% 30.50 in 10.0 mi SSE 3.5 mph - N/A   Clear
10:54 PM 25.3 °F 21.1 °F 23.0 °F 91% 30.50 in 10.0 mi SE 3.5 mph - N/A   Clear
11:15 PM 25.0 °F 20.7 °F 22.6 °F 91% 30.50 in 10.0 mi SE 3.5 mph - N/A   Clear
11:35 PM 24.6 °F 20.3 °F 22.6 °F 92% 30.50 in 10.0 mi SE 3.5 mph - N/A   Clear
11:54 PM 24.3 °F - 22.1 °F 91% 30.50 in 10.0 mi Calm Calm - N/A   Clear